EW6327 Weather Reports


time (UTC)temp
C
wind
direction
speed
KPH
gust
KPH
rain 1hr
cm
rain 24hr
cm
rain mn
cm
humidity
%
barometer
mb
20260507051024 14 101 0.0 0.0 0.00 0.18 0.00 89 1004.8
20260507050522 14 19 0.0 0.0 0.00 0.18 0.00 89 1004.6
20260507050027 14 30 0.0 0.0 0.00 0.18 0.00 89 1004.6
20260507045522 14 360 0.0 0.0 0.00 0.18 0.00 89 1004.6
20260507045022 14 298 0.0 0.0 0.00 0.18 0.00 89 1004.7
20260507044521 14 355 0.0 0.0 0.00 0.18 0.00 89 1004.7
20260507044020 14 26 0.0 0.0 0.00 0.18 0.00 89 1004.7
20260507043519 14 32 0.0 0.0 0.00 0.18 0.00 90 1004.7
20260507043023 15 28 0.0 0.0 0.00 0.18 0.00 90 1004.6
20260507042517 15 47 0.0 0.0 0.00 0.18 0.00 90 1004.4
20260507042016 15 292 0.0 0.0 0.00 0.18 0.00 89 1004.3
20260507041517 15 279 0.0 0.0 0.00 0.18 0.00 89 1004.6
20260507041015 15 268 0.0 0.0 0.00 0.18 0.00 89 1004.6
20260507040517 15 9 0.0 0.0 0.00 0.18 0.00 89 1004.5
20260507040014 15 230 0.0 0.0 0.00 0.18 0.00 88 1004.5
20260507035513 15 335 0.0 0.0 0.03 0.18 0.18 88 1004.8
20260507035013 15 243 0.0 0.0 0.03 0.18 0.18 88 1004.8
20260507034512 15 344 0.0 0.0 0.03 0.18 0.18 87 1004.7
20260507034013 15 248 0.0 0.0 0.03 0.18 0.18 87 1004.8
20260507033514 15 326 0.0 0.0 0.03 0.18 0.18 88 1004.6
20260507033012 15 355 0.0 0.0 0.03 0.18 0.18 88 1004.5
20260507032511 15 242 0.0 0.0 0.03 0.18 0.18 88 1004.5
20260507032011 15 286 0.0 0.0 0.03 0.18 0.18 88 1004.5
20260507031512 15 286 0.0 0.0 0.03 0.18 0.18 88 1004.4
20260507031011 15 290 0.0 0.0 0.03 0.18 0.18 88 1004.3
20260507030511 15 271 0.0 0.0 0.03 0.18 0.18 88 1004.2
20260507030013 15 302 0.0 0.0 0.03 0.18 0.18 88 1004.2
20260507025512 15 221 0.0 0.0 0.00 0.15 0.15 88 1004.2
20260507025011 15 254 0.0 0.0 0.00 0.15 0.15 88 1004.3
20260507024512 15 255 0.0 0.0 0.00 0.15 0.15 87 1004.1
20260507024013 15 241 0.0 0.0 0.00 0.15 0.15 87 1004.0
20260507023510 15 303 0.0 0.0 0.00 0.15 0.15 87 1004.2
20260507023010 15 269 0.0 0.0 0.00 0.15 0.15 87 1004.2
20260507022510 15 271 0.0 0.0 0.00 0.15 0.15 87 1004.3
20260507022011 15 248 0.0 0.0 0.00 0.15 0.15 87 1004.1
20260507021510 15 246 0.0 0.0 0.00 0.15 0.15 87 1004.1
20260507021009 14 238 0.0 0.0 0.00 0.15 0.15 87 1004.1
20260507020512 14 278 0.0 1.6 0.00 0.15 0.15 87 1004.2
20260507020009 14 246 0.0 1.6 0.00 0.15 0.15 87 1004.3
20260507015508 14 294 0.0 0.0 0.00 0.15 0.15 87 1004.3
20260507015008 14 336 0.0 0.0 0.00 0.15 0.15 87 1004.3
20260507014508 14 249 0.0 0.0 0.00 0.15 0.15 87 1004.1
20260507014011 14 347 0.0 0.0 0.00 0.15 0.15 87 1004.1
20260507013508 14 277 0.0 0.0 0.00 0.15 0.15 87 1004.1
20260507013017 14 269 0.0 0.0 0.00 0.15 0.15 87 1004.2
20260507012507 14 236 0.0 0.0 0.00 0.15 0.15 87 1004.4
20260507012009 14 259 0.0 0.0 0.00 0.15 0.15 87 1004.4
20260507011511 14 340 0.0 0.0 0.00 0.15 0.15 87 1004.5
20260507011006 14 268 0.0 0.0 0.00 0.15 0.15 88 1004.6
20260507010506 14 238 0.0 0.0 0.00 0.15 0.15 88 1004.6
20260507010010 14 250 0.0 0.0 0.00 0.15 0.15 88 1004.4
20260507005506 14 260 0.0 0.0 0.00 0.15 0.15 88 1004.5
20260507005005 14 236 0.0 0.0 0.00 0.15 0.15 88 1004.6
20260507004508 14 360 0.0 0.0 0.00 0.15 0.15 88 1004.6
20260507004006 14 252 0.0 0.0 0.00 0.15 0.15 88 1004.5
20260507003506 14 202 0.0 0.0 0.00 0.15 0.15 88 1004.6
20260507003006 14 252 0.0 0.0 0.03 0.15 0.15 88 1004.5
20260507002508 14 265 0.0 0.0 0.03 0.15 0.15 88 1004.4
20260507002006 14 194 0.0 0.0 0.03 0.15 0.15 88 1004.4
20260507001509 14 251 0.0 0.0 0.03 0.15 0.15 88 1004.3
20260507001004 14 274 0.0 0.0 0.03 0.15 0.15 88 1004.3
20260507000505 14 254 0.0 0.0 0.05 0.15 0.15 89 1004.2
20260507000004 14 238 0.0 0.0 0.05 0.15 0.15 89 1004.2
20260506235504 14 291 0.0 0.0 0.05 0.15 0.15 89 1004.1
20260506235003 14 277 0.0 0.0 0.05 0.15 0.15 89 1004.1
20260506234502 15 254 0.0 0.0 0.05 0.15 0.15 89 1004.1
20260506234004 15 29 0.0 0.0 0.05 0.15 0.15 89 1004.1
20260506233502 15 280 0.0 0.0 0.05 0.15 0.15 89 1004.0
20260506233002 15 213 0.0 0.0 0.03 0.13 0.13 89 1004.0
20260506232501 15 171 0.0 0.0 0.03 0.13 0.13 89 1004.0
20260506232002 15 269 0.0 0.0 0.03 0.13 0.13 89 1004.0
20260506231603 15 241 0.0 0.0 0.03 0.13 0.13 89 1003.9
20260506231100 15 271 0.0 0.0 0.03 0.13 0.13 89 1004.0
20260506230559 15 209 0.0 1.6 0.00 0.10 0.10 89 1004.1
20260506230059 15 279 0.0 0.0 0.00 0.10 0.10 89 1004.1
20260506225558 15 286 0.0 0.0 0.00 0.10 0.10 89 1004.0
20260506225059 15 207 0.0 0.0 0.00 0.10 0.10 89 1004.0
20260506224559 15 288 0.0 0.0 0.00 0.10 0.10 89 1004.1
20260506224056 15 254 0.0 0.0 0.00 0.10 0.10 89 1004.1
20260506223557 15 269 0.0 0.0 0.00 0.10 0.10 89 1004.1
20260506223056 15 278 0.0 0.0 0.03 0.10 0.10 89 1004.1
20260506222556 15 236 0.0 0.0 0.03 0.10 0.10 89 1004.2
20260506222056 15 162 0.0 0.0 0.03 0.10 0.10 89 1004.2
20260506221558 15 244 0.0 0.0 0.05 0.10 0.10 89 1004.3
20260506221054 15 263 0.0 0.0 0.05 0.10 0.10 89 1004.4
20260506220555 15 232 0.0 0.0 0.05 0.10 0.10 89 1004.4
20260506220053 15 280 0.0 0.0 0.05 0.10 0.10 89 1004.5
20260506215556 15 233 0.0 0.0 0.05 0.10 0.10 89 1004.4
20260506215052 15 255 0.0 0.0 0.05 0.10 0.10 89 1004.4
20260506214554 15 245 0.0 0.0 0.05 0.10 0.10 89 1004.5
20260506214050 15 247 0.0 0.0 0.05 0.10 0.10 90 1004.5
20260506213550 15 289 0.0 0.0 0.05 0.10 0.10 89 1004.7
20260506213109 15 269 0.0 0.0 0.03 0.08 0.08 89 1004.7
20260506212549 16 202 0.0 0.0 0.03 0.08 0.08 89 1004.8
20260506212050 16 262 0.0 0.0 0.03 0.08 0.08 89 1004.8
20260506211549 16 311 0.0 0.0 0.00 0.05 0.05 89 1004.8
20260506211049 16 236 0.0 0.0 0.00 0.05 0.05 88 1004.8
20260506210547 16 317 0.0 0.0 0.00 0.05 0.05 88 1004.8
20260506210048 16 244 0.0 0.0 0.00 0.05 0.05 88 1004.8
20260506205547 16 262 0.0 0.0 0.00 0.05 0.05 88 1004.9
20260506205047 16 244 0.0 1.6 0.00 0.05 0.05 88 1005.0
20260506204548 16 355 0.0 1.6 0.00 0.05 0.05 88 1005.0
20260506204047 16 279 0.0 0.0 0.03 0.05 0.05 88 1005.0
20260506203547 16 5 0.0 0.0 0.03 0.05 0.05 88 1005.1
20260506203047 16 253 0.0 0.0 0.03 0.05 0.05 87 1005.1
20260506202547 16 323 0.0 0.0 0.03 0.05 0.05 87 1005.1
20260506202046 16 220 0.0 0.0 0.05 0.05 0.05 86 1005.1
20260506201546 16 264 0.0 0.0 0.05 0.05 0.05 86 1005.1
20260506201045 16 275 0.0 1.6 0.05 0.05 0.05 86 1005.1
20260506200545 16 9 0.0 1.6 0.05 0.05 0.05 85 1005.0
20260506200045 16 281 0.0 0.0 0.05 0.05 0.05 85 1005.0
20260506195545 16 258 0.0 0.0 0.05 0.05 0.05 86 1004.9
20260506195047 16 253 0.0 0.0 0.05 0.05 0.05 85 1005.0
20260506194547 17 263 0.0 0.0 0.05 0.05 0.05 84 1004.9
20260506194043 17 255 0.0 0.0 0.03 0.03 0.03 82 1004.9
20260506193542 17 313 0.0 0.0 0.03 0.03 0.03 82 1005.1
20260506193043 17 26 0.0 0.0 0.03 0.03 0.03 81 1005.3
20260506192542 17 313 0.0 9.7 0.03 0.03 0.03 80 1005.3
20260506192042 17 327 0.0 9.7 0.00 0.00 0.00 78 1005.2
20260506191543 18 252 0.0 0.0 0.00 0.00 0.00 78 1005.3
20260506191042 18 311 0.0 0.0 0.00 0.00 0.00 77 1005.1
20260506190543 18 281 0.0 0.0 0.00 0.00 0.00 75 1005.1
20260506190043 19 28 0.0 0.0 0.00 0.00 0.00 73 1005.2
20260506185541 19 296 0.0 0.0 0.00 0.00 0.00 70 1005.2
20260506185041 20 323 0.0 0.0 0.00 0.00 0.00 68 1005.1
20260506184549 20 15 0.0 0.0 0.00 0.00 0.00 67 1005.2
20260506184040 20 223 0.0 0.0 0.00 0.00 0.00 66 1005.1
20260506183540 20 275 0.0 1.6 0.00 0.00 0.00 66 1005.3
20260506183052 20 330 0.0 1.6 0.00 0.00 0.00 66 1005.3
20260506182539 21 326 0.0 6.4 0.00 0.00 0.00 64 1005.3
20260506182038 21 325 0.0 6.4 0.00 0.00 0.00 62 1005.4
20260506181608 21 244 0.0 0.0 0.00 0.00 0.00 61 1005.3
20260506181038 21 117 0.0 0.0 0.00 0.00 0.00 60 1005.4
20260506180538 21 242 0.0 0.0 0.00 0.00 0.00 59 1005.3
20260506180037 21 12 0.0 0.0 0.00 0.00 0.00 59 1005.5
20260506175538 21 261 0.0 1.6 0.00 0.00 0.00 58 1005.5
20260506175039 21 250 0.0 12.9 0.00 0.00 0.00 57 1005.5
20260506174535 22 349 1.6 11.3 0.00 0.00 0.00 56 1005.6
20260506174035 22 333 0.0 0.0 0.00 0.00 0.00 57 1005.6
20260506173535 22 295 0.0 1.6 0.00 0.00 0.00 56 1005.7
20260506173053 22 316 0.0 1.6 0.00 0.00 0.00 56 1005.7
20260506172536 22 320 0.0 0.0 0.00 0.00 0.00 56 1005.7
20260506172035 22 261 0.0 0.0 0.00 0.00 0.00 55 1005.7
20260506171533 22 260 0.0 0.0 0.00 0.00 0.00 55 1005.8
20260506171033 22 276 0.0 1.6 0.00 0.00 0.00 55 1005.8
20260506170533 23 271 0.0 1.6 0.00 0.00 0.00 56 1005.5
20260506170030 22 313 0.0 0.0 0.00 0.00 0.00 58 1005.5
20260506165532 22 259 0.0 0.0 0.00 0.00 0.00 58 1005.7
20260506165033 22 117 0.0 0.0 0.00 0.00 0.00 58 1005.8
20260506164535 22 256 0.0 0.0 0.00 0.00 0.00 58 1006.0
20260506164028 22 319 0.0 0.0 0.00 0.00 0.00 57 1006.1
20260506163527 22 247 0.0 0.0 0.00 0.00 0.00 57 1006.1
20260506163027 22 273 0.0 0.0 0.00 0.00 0.00 58 1006.1
20260506162526 22 276 0.0 0.0 0.00 0.00 0.00 57 1006.2
20260506162026 22 272 0.0 8.0 0.00 0.00 0.00 58 1006.1
20260506161525 22 267 0.0 0.0 0.00 0.00 0.00 59 1006.3
20260506161023 22 238 0.0 0.0 0.00 0.00 0.00 61 1006.5
20260506160523 22 188 0.0 0.0 0.00 0.00 0.00 61 1006.4
20260506160024 22 196 0.0 0.0 0.00 0.00 0.00 60 1006.5
20260506155521 21 219 0.0 0.0 0.00 0.00 0.00 60 1006.7
20260506155021 21 247 0.0 0.0 0.00 0.00 0.00 61 1006.7
20260506154520 21 251 0.0 0.0 0.00 0.00 0.00 60 1006.7
20260506154021 21 250 0.0 0.0 0.00 0.00 0.00 60 1007.0
20260506153523 22 42 0.0 0.0 0.00 0.00 0.00 59 1007.0
20260506153022 22 254 0.0 1.6 0.00 0.00 0.00 59 1007.1
20260506152518 22 310 0.0 1.6 0.00 0.00 0.00 59 1007.2
20260506152020 22 277 0.0 0.0 0.00 0.00 0.00 61 1007.1
20260506151518 22 327 0.0 0.0 0.00 0.00 0.00 60 1007.2
20260506151017 22 282 0.0 0.0 0.00 0.00 0.00 59 1007.2
20260506150516 22 320 0.0 0.0 0.00 0.00 0.00 60 1007.2
20260506150016 22 249 0.0 0.0 0.00 0.00 0.00 60 1007.3
20260506145515 21 336 0.0 0.0 0.00 0.00 0.00 61 1007.2
20260506145013 21 244 0.0 0.0 0.00 0.00 0.00 62 1007.4
20260506144516 21 259 0.0 1.6 0.00 0.00 0.00 62 1007.3
20260506144015 21 273 0.0 0.0 0.00 0.00 0.00 63 1007.2
20260506143512 21 182 0.0 0.0 0.00 0.00 0.00 63 1007.3
20260506143014 21 320 0.0 0.0 0.00 0.00 0.00 63 1007.1
20260506142511 21 196 0.0 0.0 0.00 0.00 0.00 64 1007.1
20260506142009 21 249 0.0 0.0 0.00 0.00 0.00 66 1007.2
20260506141507 20 264 0.0 0.0 0.00 0.00 0.00 67 1007.1
20260506141009 20 336 0.0 0.0 0.00 0.00 0.00 68 1007.2
20260506140508 20 169 0.0 0.0 0.00 0.00 0.00 69 1007.2
20260506140005 20 269 0.0 0.0 0.00 0.00 0.00 69 1007.3
20260506135502 19 345 0.0 0.0 0.00 0.00 0.00 71 1007.3
20260506135003 19 284 0.0 1.6 0.00 0.00 0.00 71 1007.3
20260506134500 19 355 0.0 1.6 0.00 0.00 0.00 72 1007.2
20260506134102 19 200 0.0 1.6 0.00 0.00 0.00 72 1007.2
20260506133559 18 286 0.0 0.0 0.00 0.00 0.00 73 1007.5
20260506133058 18 243 0.0 0.0 0.00 0.00 0.00 73 1007.8
20260506132556 18 157 0.0 0.0 0.00 0.00 0.00 74 1007.9
20260506132056 18 246 0.0 0.0 0.00 0.00 0.00 73 1008.0
20260506131556 18 233 0.0 0.0 0.00 0.00 0.00 73 1008.0
20260506131055 18 250 0.0 0.0 0.00 0.00 0.00 74 1008.0
20260506130555 18 257 0.0 0.0 0.00 0.00 0.00 75 1007.9
20260506130056 18 244 0.0 0.0 0.00 0.00 0.00 76 1007.8
20260506125553 18 271 0.0 0.0 0.00 0.00 0.00 75 1007.8
20260506125051 17 200 0.0 0.0 0.00 0.00 0.00 77 1007.7
20260506124551 17 330 0.0 0.0 0.00 0.00 0.00 77 1007.9
20260506124051 17 333 0.0 0.0 0.00 0.00 0.00 78 1007.9
20260506123550 17 348 0.0 0.0 0.00 0.00 0.00 79 1008.0
20260506123050 17 223 0.0 0.0 0.00 0.00 0.00 79 1008.0
20260506122550 17 254 0.0 0.0 0.00 0.00 0.00 80 1008.1
20260506122050 16 259 0.0 0.0 0.00 0.00 0.00 80 1008.0
20260506121549 16 246 0.0 0.0 0.00 0.00 0.00 81 1008.0
20260506121048 16 236 0.0 0.0 0.00 0.00 0.00 81 1007.9
20260506120548 16 287 0.0 0.0 0.00 0.00 0.00 82 1008.0
20260506120048 16 229 0.0 0.0 0.00 0.00 0.00 82 1008.0
20260506115548 16 282 0.0 0.0 0.00 0.00 0.00 82 1008.3
20260506115047 16 229 0.0 0.0 0.00 0.00 0.00 82 1008.3
20260506114546 16 221 0.0 0.0 0.00 0.00 0.00 82 1008.3
20260506114045 16 322 0.0 0.0 0.00 0.00 0.00 82 1008.2
20260506113545 16 263 0.0 1.6 0.00 0.00 0.00 82 1008.4
20260506113045 15 304 0.0 1.6 0.00 0.00 0.00 82 1008.6
20260506112544 15 247 0.0 0.0 0.00 0.00 0.00 82 1008.5
20260506112042 15 272 0.0 0.0 0.00 0.00 0.00 83 1008.5
20260506111542 15 300 0.0 0.0 0.00 0.00 0.00 82 1008.4
20260506111041 15 257 0.0 0.0 0.00 0.00 0.00 82 1008.4
20260506110543 15 251 0.0 0.0 0.00 0.00 0.00 83 1008.3
20260506110041 15 265 0.0 0.0 0.00 0.00 0.00 83 1008.3
20260506105544 15 279 0.0 0.0 0.00 0.00 0.00 83 1008.3
20260506105044 15 269 0.0 0.0 0.00 0.00 0.00 83 1008.3
20260506104540 15 226 0.0 0.0 0.00 0.00 0.00 83 1008.2
20260506104040 15 253 0.0 0.0 0.00 0.00 0.00 83 1008.3
20260506103540 15 259 0.0 0.0 0.00 0.00 0.00 83 1008.4
20260506103051 15 267 0.0 0.0 0.00 0.00 0.00 83 1008.4
20260506102540 15 266 0.0 0.0 0.00 0.00 0.00 83 1008.5
20260506102040 15 315 0.0 0.0 0.00 0.00 0.00 83 1008.5
20260506101539 15 152 0.0 0.0 0.00 0.00 0.00 82 1008.5
20260506101038 15 267 0.0 0.0 0.00 0.00 0.00 82 1008.4
20260506100541 15 45 0.0 0.0 0.00 0.00 0.00 82 1008.3
20260506100039 15 302 0.0 0.0 0.00 0.00 0.00 82 1008.3
20260506095538 15 328 0.0 0.0 0.00 0.00 0.00 82 1008.2
20260506095037 15 230 0.0 0.0 0.00 0.00 0.00 82 1008.2
20260506094538 15 257 0.0 0.0 0.00 0.00 0.00 81 1008.0
20260506094038 15 240 0.0 0.0 0.00 0.00 0.00 81 1008.1
20260506093538 15 355 0.0 0.0 0.00 0.00 0.00 81 1008.1
20260506093035 15 258 0.0 0.0 0.00 0.00 0.00 81 1008.2
20260506092536 15 281 0.0 0.0 0.00 0.00 0.00 81 1008.2
20260506092034 15 217 0.0 0.0 0.00 0.00 0.00 81 1008.1
20260506091535 15 229 0.0 0.0 0.00 0.00 0.00 80 1008.2
20260506091036 15 260 0.0 0.0 0.00 0.00 0.00 80 1008.2
20260506090534 15 254 0.0 0.0 0.00 0.00 0.00 80 1008.1
20260506090034 15 245 0.0 0.0 0.00 0.00 0.00 80 1008.2
20260506085532 15 230 0.0 0.0 0.00 0.00 0.00 80 1008.2
20260506085032 15 207 0.0 0.0 0.00 0.00 0.00 80 1008.3
20260506084532 15 231 0.0 0.0 0.00 0.00 0.00 80 1008.4
20260506084032 16 271 0.0 0.0 0.00 0.00 0.00 79 1008.4
20260506083533 16 231 0.0 0.0 0.00 0.00 0.00 79 1008.4
20260506083030 16 131 0.0 0.0 0.00 0.00 0.00 79 1008.4
20260506082529 16 240 0.0 0.0 0.00 0.00 0.00 79 1008.4
20260506082029 16 259 0.0 0.0 0.00 0.00 0.00 79 1008.3
20260506081530 16 221 0.0 0.0 0.00 0.00 0.00 78 1008.4
20260506081031 16 251 0.0 0.0 0.00 0.00 0.00 78 1008.4
20260506080528 16 332 0.0 0.0 0.00 0.00 0.00 78 1008.4
20260506073528 16 311 0.0 0.0 0.00 0.00 0.00 76 1008.3
20260506073024 16 242 0.0 1.6 0.00 0.00 0.00 76 1008.3
20260506072523 16 268 0.0 0.0 0.00 0.00 0.00 76 1008.3
20260506072024 16 271 0.0 0.0 0.00 0.00 0.00 76 1008.3
20260506071522 16 257 0.0 0.0 0.00 0.00 0.00 75 1008.2
20260506071021 16 205 0.0 0.0 0.00 0.00 0.00 75 1008.2
20260506070521 16 234 0.0 0.0 0.00 0.00 0.00 75 1008.0
20260506062515 17 275 0.0 0.0 0.00 0.00 0.00 72 1007.8
20260506062015 17 237 0.0 0.0 0.00 0.00 0.00 72 1007.8
20260506061515 17 278 0.0 0.0 0.00 0.00 0.00 71 1007.9
20260506061013 17 224 0.0 0.0 0.00 0.00 0.00 71 1007.8
20260506060513 17 276 0.0 1.6 0.00 0.00 0.00 70 1007.8